Change the Weather History Date:

Thursday, May 23, 2013

  Actual Average Record
Temperature  
Mean Temperature 63 °F 67 °F  
Max Temperature 74 °F 77 °F 90 °F (1939)
Min Temperature 52 °F 57 °F 40 °F (1917)
Degree Days  
Heating Degree Days 2 2  
Month to date heating degree days 140 83  
Since 1 July heating degree days 4492 4557  
Cooling Degree Days 0 4  
Month to date cooling degree days 53 53  
Year to date cooling degree days 70 78  
Growing Degree Days 12 (Base 50)    
Moisture  
Dew Point 54 °F    
Average Humidity 73    
Maximum Humidity 93    
Minimum Humidity 53    
Precipitation  
Precipitation 0.00 in 0.16 in 2.36 in (1971)
Month to date precipitation 3.33 3.91  
Year to date precipitation 19.08 16.84  
Snow  
Snow 0.00 in - - ()
Month to date snowfall 1.4  
Since 1 July snowfall 12.7  
Snow Depth 0.00 in    
Sea Level Pressure  
Sea Level Pressure 30.06 in    
Wind  
Wind Speed 9 mph (North)    
Max Wind Speed 17 mph    
Max Gust Speed 21 mph    
Visibility 10 miles    
Events      
T = Trace of Precipitation, MM = Missing Value Source: NWS Daily Summary

Daily Weather History Graph

Daily Weather History Graph

Search for Another Location

Airport or City:

Trip Planner

Search our weather history database for the weather conditions in past years. The results will help you decide how hot, cold, wet, or windy it might be!

Date:

Astronomy

May. 23, 2013 Rise Set
Actual Time 5:59 AM CDT 8:22 PM CDT
Civil Twilight 5:29 AM CDT 8:51 PM CDT
Nautical Twilight 4:52 AM CDT 9:28 PM CDT
Astronomical Twilight 4:12 AM CDT 10:09 PM CDT
Moon 6:56 PM CDT (5/23) 4:42 AM CDT (5/23)
Length of Visible Light 15h 22m
Length of Day
14h 23m
Waxing Gibbous, 97% of the Moon is Illuminated
May 23
Waxing Gibbous
May 24
Full
May 31
Last Quarter
Jun 8
New
Jun 16
First Quarter

Hourly Weather History & Observations

Time (CDT) Temp. Dew Point Humidity Pressure Visibility Wind Dir Wind Speed Gust Speed Precip Events Conditions
12:52 AM 57.0 °F 54.0 °F 89% 29.94 in 10.0 mi Calm Calm - N/A   Scattered Clouds
1:52 AM 55.0 °F 52.0 °F 89% 29.94 in 10.0 mi SW 4.6 mph - N/A   Clear
2:52 AM 55.0 °F 52.0 °F 89% 29.94 in 10.0 mi SW 4.6 mph - N/A   Clear
3:52 AM 54.0 °F 52.0 °F 93% 29.95 in 10.0 mi Calm Calm - N/A   Clear
4:52 AM 55.0 °F 52.0 °F 89% 29.97 in 10.0 mi Calm Calm - N/A   Clear
5:52 AM 54.0 °F 52.0 °F 93% 30.00 in 10.0 mi NW 5.8 mph - N/A   Clear
6:52 AM 55.9 °F 54.0 °F 93% 30.03 in 10.0 mi North 9.2 mph - N/A   Clear
7:52 AM 60.1 °F 53.1 °F 78% 30.04 in 10.0 mi North 10.4 mph - N/A   Clear
8:52 AM 61.0 °F 51.1 °F 70% 30.04 in 10.0 mi North 15.0 mph - N/A   Clear
9:52 AM 64.0 °F 52.0 °F 65% 30.11 in 10.0 mi WNW 9.2 mph - N/A   Clear
10:52 AM 66.9 °F 53.1 °F 61% 30.09 in 10.0 mi NNW 10.4 mph - N/A   Clear
11:52 AM 68.0 °F 53.1 °F 59% 30.09 in 10.0 mi North 11.5 mph - N/A   Clear
12:52 PM 70.0 °F 55.9 °F 61% 30.10 in 10.0 mi North 9.2 mph - N/A   Clear
1:52 PM 71.1 °F 55.0 °F 57% 30.11 in 10.0 mi NW 9.2 mph - N/A   Clear
2:52 PM 73.0 °F 55.0 °F 53% 30.11 in 10.0 mi NNW 8.1 mph - N/A   Scattered Clouds
3:52 PM 73.0 °F 55.9 °F 55% 30.11 in 10.0 mi NNE 8.1 mph - N/A   Scattered Clouds
4:52 PM 71.1 °F 54.0 °F 55% 30.09 in 10.0 mi North 12.7 mph - N/A   Clear
5:52 PM 70.0 °F 55.9 °F 61% 30.09 in 10.0 mi NNE 13.8 mph - N/A   Clear
6:52 PM 69.1 °F 55.0 °F 61% 30.10 in 10.0 mi NNE 10.4 mph - N/A   Clear
7:52 PM 66.0 °F 55.0 °F 68% 30.11 in 10.0 mi NNE 9.2 mph - N/A   Clear
8:52 PM 64.0 °F 54.0 °F 70% 30.13 in 10.0 mi NE 9.2 mph - N/A   Clear
9:52 PM 61.0 °F 53.1 °F 75% 30.14 in 10.0 mi NE 10.4 mph - N/A   Clear
10:52 PM 60.1 °F 53.1 °F 78% 30.17 in 10.0 mi NE 8.1 mph - N/A   Clear
11:52 PM 57.9 °F 53.1 °F 84% 30.18 in 10.0 mi East 9.2 mph - N/A   Clear